{"data":{"norad_id":55176,"intl_designator":"2023-004AN","name":"ONEWEB-0715","alt_names":[],"object_type":"PAYLOAD","status":"ACTIVE","operator":null,"country":"UK","launch_date":"2023-01-10","launch_site_code":"AFETR","launch_vehicle":null,"mission":null,"orbit_class":"UNKNOWN","rcs_meters":null,"size_class":null,"mass_kg":null,"dimensions":null,"purposes":["comms"],"wikipedia_slug":null,"has_3d_model":false,"image_url":null,"decayed_at":null,"tle_current":{"epoch":"2026-09-20T02:27:16.573824Z","epoch_age_seconds":60157,"freshness":"FRESH","line1":"1 55176U 23004AN  26263.10227516  .00000313  00000+0  84839-3 0  9997","line2":"2 55176  87.8971   2.2014 0001113 107.3516 252.7734 13.11418099178300","mean_motion":13.11418099,"eccentricity":0.0001113,"inclination_deg":87.8971,"raan_deg":2.2014,"arg_perigee_deg":107.3516,"mean_anomaly_deg":252.7734,"bstar":0.00084839,"rev_number":17830,"period_min":109.80479841616,"perigee_km":1216.8328281074,"apogee_km":1218.5236565804,"semimajor_km":7595.8152423439,"source":"CELESTRAK","updated_at":"2026-09-20T09:00:44.757905Z"}}}